ORBCOMM FM108

Last updated on Tue Sep 22 2026 00:03:23 GMT+0000 (Coordinated Universal Time)

1 41187U 15081J 26263.89009460 .00000221 00000+0 82868-4 0 9991 2 41187 47.0039 89.6718 0002555 273.2120 86.8473 14.58983376574050
UTC large
Height (km)
Speed (km/s)
/
Latitude / Longitude
Inclination (degrees)
Orbital Period (minutes)
Azimuth
Elevation
Range (km)
Doppler Factor

Next 0 passes for location: London (51.5072 / 0.1276)

No passes found over London.
ORBCOMM FM108